Home > Weather > Duluth > Past weeks

Flag for USA Past Weather in Duluth, Minnesota, USA — Yesterday and Last 2 Weeks

Now
59 °F

Mostly cloudy.


Feels Like: 57 °F
Forecast: 62 / 79 °F
Wind: 9 mph from Northeast

Location: Sky Harbor Airport

Current Time: Jun 25, 2016 at 9:58:33 PM

Latest Report: Jun 25, 2016 at 9:14 PM


Visibility: 7 mi

Pressure: 29.75 "Hg

Humidity: 94%

Dew Point: 57 °F

Location of DuluthLocation

Past Weather in Duluth — Graph

°F

Duluth Temperature Yesterday

Maximum temperature yesterday: 84 °F (at 5:14 PM)
Minimum temperature yesterday: 61 °F (at 3:54 AM)
Average temperature yesterday: 70 °F

High & Low Weather Summary for the Past Weeks

 TemperatureHumidityPressure
High90 °F (Jun 19, 1:54 PM)100% (Jun 13, 12:34 AM)30.25 "Hg (Jun 13, 12:34 AM)
Low45 °F (Jun 13, 8:13 AM)28% (Jun 21, 4:54 PM)29.65 "Hg (Jun 25, 4:53 PM)
Average60 °F79%29.97 "Hg
* Reported Jun 10 8:13 PM — Jun 25 8:34 PM, Duluth, Weather by CustomWeather, © 2016

Note: Actual official high and low records may vary slightly from our data, if they occured in-between our weather recording intervals... More about our weather records

Advertising

Duluth Weather History for the Previous 24 Hours

Scroll right to see more
 ConditionsComfort  
Time TempWeatherWind HumidityBarometerVisibility
8:34 PM
Sat, Jun 25
61 °FScattered clouds.8 mph88%29.73 "Hg10 mi
8:14 PM66 °FSunny.No wind94%29.72 "Hg10 mi
7:53 PM68 °FThunderstorms. Scattered clouds.5 mph94%29.71 "Hg10 mi
7:34 PM68 °FScattered clouds.12 mph94%29.71 "Hg10 mi
7:14 PM68 °FThunderstorms. Scattered clouds.12 mph94%29.70 "Hg10 mi
6:53 PM68 °FDrizzle. Broken clouds.15 mph94%29.68 "Hg10 mi
6:34 PM68 °FThunderstorms. Cloudy.16 mph94%29.68 "Hg10 mi
6:14 PM66 °FThunderstorms. Cloudy.7 mph94%29.73 "Hg10 mi
5:53 PM64 °FThunderstorms. More clouds than sun.7 mph94%29.74 "Hg10 mi
5:34 PM63 °FStrong thunderstorms. More clouds than sun.No wind94%29.74 "Hg2 mi
5:14 PM61 °FThunderstorms. Scattered clouds.26 mph88%29.72 "Hg10 mi
4:53 PM61 °FThunderstorms. Sunny.16 mph88%29.65 "Hg10 mi
4:34 PM61 °FThunderstorms. Sunny.13 mph88%29.69 "Hg10 mi
4:14 PM61 °FThundershowers. Sunny.8 mph88%29.66 "Hg10 mi
3:53 PM61 °FThunderstorms. Sunny.5 mph88%29.67 "Hg10 mi
3:34 PM61 °FSunny.8 mph88%29.66 "Hg10 mi
3:14 PM61 °FSunny.5 mph88%29.70 "Hg10 mi
2:53 PM63 °FSunny.6 mph83%29.70 "Hg10 mi
2:34 PM64 °FSunny.5 mph78%29.72 "Hg10 mi
2:14 PM63 °FSunny.7 mph83%29.74 "Hg10 mi
1:53 PM61 °FSunny.6 mph88%29.75 "Hg10 mi
1:34 PM61 °FSunny.9 mph83%29.76 "Hg10 mi
1:14 PM61 °FScattered clouds.10 mph88%29.78 "Hg10 mi
12:54 PM61 °FBroken clouds.15 mph88%29.79 "Hg10 mi
12:33 PM63 °FMostly cloudy.14 mph83%29.80 "Hg10 mi
12:14 PM61 °FMore clouds than sun.17 mph88%29.81 "Hg10 mi
11:54 AM61 °FOvercast.10 mph88%29.84 "Hg10 mi
11:33 AM63 °FPartly sunny.13 mph83%29.82 "Hg10 mi
11:14 AM57 °FThundershowers. Scattered clouds.18 mph94%29.82 "Hg10 mi
10:54 AM61 °FSunny.16 mph83%29.80 "Hg10 mi
10:33 AM61 °FThundershowers. Sunny.12 mph83%29.81 "Hg10 mi
10:14 AM61 °FSunny.8 mph88%29.80 "Hg10 mi
9:54 AM63 °FSunny.7 mph83%29.80 "Hg10 mi
9:34 AM61 °FThunderstorms. Scattered clouds.12 mph88%29.77 "Hg10 mi
9:14 AM57 °FThunderstorms. Scattered clouds.10 mph94%29.80 "Hg10 mi
8:54 AM57 °FThunderstorms. Sunny.9 mph94%29.81 "Hg10 mi
8:34 AM59 °FSunny.9 mph88%29.80 "Hg10 mi
8:14 AM57 °FSunny.8 mph88%29.80 "Hg10 mi
7:54 AM55 °FThunderstorms. Sunny.9 mph94%29.80 "Hg10 mi
7:34 AM57 °FSunny.7 mph88%29.80 "Hg10 mi
7:14 AM57 °FSunny.7 mph88%29.80 "Hg10 mi
6:54 AM57 °FThunderstorms. Scattered clouds.6 mph88%29.82 "Hg10 mi
6:34 AM57 °FSunny.8 mph88%29.83 "Hg10 mi
6:14 AM57 °FClear.6 mph88%29.84 "Hg10 mi
5:54 AM57 °FPassing clouds.8 mph88%29.85 "Hg10 mi
5:34 AM57 °FThunderstorms. Partly cloudy.8 mph94%29.86 "Hg10 mi
5:13 AM57 °FLight rain. Mostly cloudy.8 mph94%29.86 "Hg10 mi
4:54 AM57 °FPartly cloudy.9 mph94%29.86 "Hg10 mi
4:33 AM59 °FPartly cloudy.9 mph88%29.87 "Hg10 mi
4:14 AM59 °FMostly cloudy.9 mph94%29.87 "Hg10 mi
3:54 AM61 °FPassing clouds.6 mph88%29.87 "Hg10 mi
3:33 AM61 °FMostly cloudy.5 mph88%29.89 "Hg10 mi
3:14 AM61 °FMostly cloudy.3 mph88%29.90 "Hg10 mi
2:54 AM61 °FPartly cloudy.5 mph88%29.90 "Hg10 mi
2:33 AM61 °FPassing clouds.5 mph88%29.90 "Hg10 mi
2:14 AM61 °FClear.5 mph88%29.90 "Hg10 mi
1:54 AM61 °FClear.5 mph88%29.91 "Hg10 mi
1:33 AM61 °FClear.5 mph88%29.91 "Hg10 mi
1:14 AM61 °FClear.5 mph88%29.91 "Hg10 mi
12:54 AM61 °FClear.3 mph88%29.91 "Hg10 mi
12:33 AM61 °FClear.3 mph88%29.92 "Hg10 mi
12:14 AM61 °FClear.3 mph88%29.93 "Hg10 mi
11:54 PM
Fri, Jun 24
61 °FClear.5 mph88%29.93 "Hg10 mi
11:33 PM61 °FClear.5 mph88%29.94 "Hg10 mi
11:14 PM61 °FClear.5 mph88%29.94 "Hg10 mi
10:54 PM61 °FClear.6 mph88%29.95 "Hg10 mi
10:33 PM61 °FClear.6 mph83%29.95 "Hg10 mi
10:14 PM61 °FClear.6 mph88%29.95 "Hg10 mi
9:53 PM61 °FSunny.6 mph88%29.95 "Hg10 mi
9:34 PM61 °FSunny.5 mph88%29.95 "Hg10 mi
9:13 PM61 °FSunny.5 mph88%29.95 "Hg10 mi
Weather by CustomWeather, © 2016

See weather overviewHow to use our weather pages